Weather History for KALM - March, 2013

Change the Weather History Date:

Saturday, March 2, 2013

  Actual Average Record
Temperature  
Mean Temperature 48 °F -  
Max Temperature 66 °F 65 °F 79 °F (1974)
Min Temperature 30 °F 37 °F 19 °F (1998)
Degree Days  
Heating Degree Days 17    
Moisture  
Dew Point 12 °F    
Average Humidity 23    
Maximum Humidity 51    
Minimum Humidity 13    
Precipitation  
Precipitation 0.00 in - - ()
Sea Level Pressure  
Sea Level Pressure 30.32 in    
Wind  
Wind Speed 5 mph (NE)    
Max Wind Speed 10 mph    
Max Gust Speed 20 mph    
Visibility 10 miles    
Events      
Averages and records for this station are not official NWS values.
T = Trace of Precipitation, MM = Missing Value Source: NWS Daily Summary

Daily Weather History Graph

Daily Weather History Graph

Search for Another Location

Airport or City:

Trip Planner

Search our weather history database for the weather conditions in past years. The results will help you decide how hot, cold, wet, or windy it might be!

Date:

Astronomy

Mar. 02, 2013 Rise Set
Actual Time 6:30 AM MST 6:02 PM MST
Civil Twilight 6:05 AM MST 6:26 PM MST
Nautical Twilight 5:36 AM MST 6:55 PM MST
Astronomical Twilight 5:08 AM MST 7:24 PM MST
Moon 11:24 PM MST (3/2) 9:19 AM MST (3/2)
Length of Visible Light 12h 21m
Length of Day
11h 31m
Waning Gibbous, 73% of the Moon is Illuminated
Mar 2
Waning Gibbous
Mar 4
Last Quarter
Mar 11
New
Mar 19
First Quarter
Mar 27
Full

Hourly Weather History & Observations

Time (MST) Temp. Windchill Dew Point Humidity Pressure Visibility Wind Dir Wind Speed Gust Speed Precip Events Conditions
12:15 AM 39.2 °F 34.2 °F 8.6 °F 28% 30.34 in 10.0 mi SE 6.9 mph - N/A   Clear
12:35 AM 39.2 °F 34.2 °F 8.6 °F 28% 30.35 in 10.0 mi SE 6.9 mph - N/A   Clear
12:55 AM 39.2 °F 35.0 °F 8.6 °F 28% 30.36 in 10.0 mi ESE 5.8 mph - N/A   Clear
1:15 AM 39.2 °F 35.9 °F 8.6 °F 28% 30.35 in 10.0 mi ESE 4.6 mph - N/A   Clear
1:35 AM 37.4 °F 34.9 °F 6.8 °F 28% 30.35 in 10.0 mi ESE 3.5 mph - N/A   Clear
1:55 AM 37.4 °F 33.8 °F 6.8 °F 28% 30.35 in 10.0 mi East 4.6 mph - N/A   Clear
2:15 AM 35.6 °F 30.7 °F 6.8 °F 30% 30.35 in 10.0 mi ENE 5.8 mph - N/A   Clear
2:35 AM 37.4 °F 32.8 °F 8.6 °F 30% 30.35 in 10.0 mi ENE 5.8 mph - N/A   Clear
2:55 AM 37.4 °F 34.9 °F 8.6 °F 30% 30.35 in 10.0 mi North 3.5 mph - N/A   Clear
3:15 AM 35.6 °F - 6.8 °F 30% 30.35 in 10.0 mi Calm Calm - N/A   Clear
3:35 AM 32.0 °F - 6.8 °F 35% 30.35 in 10.0 mi Calm Calm - N/A   Clear
3:55 AM 32.0 °F 28.7 °F 6.8 °F 35% 30.35 in 10.0 mi NNE 3.5 mph - N/A   Clear
4:15 AM 32.0 °F 28.7 °F 6.8 °F 35% 30.36 in 10.0 mi NNE 3.5 mph - N/A   Clear
4:35 AM 33.8 °F 29.6 °F 8.6 °F 35% 30.36 in 10.0 mi NNE 4.6 mph - N/A   Clear
4:55 AM 32.0 °F - 8.6 °F 38% 30.36 in 10.0 mi Calm Calm - N/A   Clear
5:15 AM 30.2 °F - 6.8 °F 37% 30.37 in 10.0 mi Calm Calm - N/A   Clear
5:35 AM 37.4 °F - 8.6 °F 30% 30.37 in 10.0 mi Calm Calm - N/A   Clear
6:15 AM 32.0 °F 28.7 °F 8.6 °F 38% 30.39 in 10.0 mi ESE 3.5 mph - N/A   Clear
6:35 AM 33.8 °F 30.8 °F 8.6 °F 35% 30.39 in 10.0 mi ESE 3.5 mph - N/A   Clear
6:55 AM 30.2 °F 26.7 °F 14.0 °F 51% 30.40 in 10.0 mi East 3.5 mph - N/A   Clear
7:15 AM 32.0 °F 28.7 °F 12.2 °F 44% 30.41 in 10.0 mi ESE 3.5 mph - N/A   Clear
7:35 AM 41.0 °F 39.0 °F 8.6 °F 26% 30.41 in 10.0 mi ESE 3.5 mph - N/A   Clear
7:55 AM 48.2 °F - 10.4 °F 22% 30.42 in 10.0 mi Calm Calm - N/A   Clear
8:15 AM 48.2 °F - 15.8 °F 27% 30.42 in 10.0 mi Calm Calm - N/A   Clear
8:35 AM 50.0 °F - 14.0 °F 24% 30.42 in 10.0 mi Calm Calm - N/A   Clear
8:55 AM 50.0 °F - 10.4 °F 20% 30.43 in 10.0 mi South 3.5 mph - N/A   Clear
9:15 AM 51.8 °F - 8.6 °F 18% 30.42 in 10.0 mi SW 4.6 mph - N/A   Clear
9:55 AM 53.6 °F - 8.6 °F 16% 30.42 in 10.0 mi West 3.5 mph - N/A   Clear
10:15 AM 55.4 °F - 12.2 °F 18% 30.41 in 10.0 mi West 3.5 mph - N/A   Clear
10:35 AM 59.0 °F - 15.8 °F 19% 30.41 in 10.0 mi West 8.1 mph - N/A   Clear
10:55 AM 59.0 °F - 17.6 °F 20% 30.40 in 10.0 mi Calm Calm - N/A   Clear
11:15 AM 59.0 °F - 17.6 °F 20% 30.39 in 10.0 mi WNW 5.8 mph - N/A   Clear
11:35 AM 62.6 °F - 17.6 °F 18% 30.38 in 10.0 mi NW 8.1 mph 17.3 mph N/A   Clear
11:55 AM 62.6 °F - 17.6 °F 18% 30.37 in 10.0 mi WNW 10.4 mph 17.3 mph N/A   Clear
12:15 PM 62.6 °F - 17.6 °F 18% 30.36 in 10.0 mi NW 8.1 mph - N/A   Clear
12:35 PM 62.6 °F - 17.6 °F 18% 30.35 in 10.0 mi WNW 3.5 mph 19.6 mph N/A   Clear
12:55 PM 64.4 °F - 17.6 °F 16% 30.34 in 10.0 mi NW 9.2 mph - N/A   Clear
1:15 PM 64.4 °F - 17.6 °F 16% 30.32 in 10.0 mi WNW 10.4 mph - N/A   Clear
1:35 PM 64.4 °F - 15.8 °F 15% 30.31 in 10.0 mi NW 6.9 mph - N/A   Clear
1:55 PM 64.4 °F - 15.8 °F 15% 30.31 in 10.0 mi WNW 8.1 mph - N/A   Clear
2:15 PM 64.4 °F - 15.8 °F 15% 30.30 in 10.0 mi West 9.2 mph - N/A   Clear
2:35 PM 66.2 °F - 15.8 °F 14% 30.30 in 10.0 mi NW 4.6 mph - N/A   Clear
2:55 PM 66.2 °F - 14.0 °F 13% 30.29 in 10.0 mi West 8.1 mph - N/A   Clear
3:15 PM 66.2 °F - 15.8 °F 14% 30.28 in 10.0 mi NW 4.6 mph - N/A   Clear
3:35 PM 66.2 °F - 15.8 °F 14% 30.28 in 10.0 mi NW 10.4 mph 16.1 mph N/A   Clear
3:55 PM 66.2 °F - 14.0 °F 13% 30.27 in 10.0 mi WNW 5.8 mph - N/A   Clear
4:15 PM 66.2 °F - 14.0 °F 13% 30.27 in 10.0 mi NNW 8.1 mph - N/A   Clear
4:35 PM 66.2 °F - 14.0 °F 13% 30.26 in 10.0 mi North 8.1 mph - N/A   Clear
4:55 PM 66.2 °F - 14.0 °F 13% 30.26 in 10.0 mi North 6.9 mph - N/A   Clear
5:15 PM 66.2 °F - 14.0 °F 13% 30.25 in 10.0 mi NNE 5.8 mph - N/A   Clear
5:35 PM 64.4 °F - 14.0 °F 14% 30.25 in 10.0 mi NNE 6.9 mph - N/A   Clear
5:55 PM 62.6 °F - 14.0 °F 15% 30.25 in 10.0 mi NE 6.9 mph - N/A   Clear
6:15 PM 59.0 °F - 12.2 °F 16% 30.24 in 10.0 mi NE 5.8 mph - N/A   Clear
6:35 PM 57.2 °F - 14.0 °F 18% 30.24 in 10.0 mi Calm Calm - N/A   Clear
6:55 PM 53.6 °F - 10.4 °F 18% 30.24 in 10.0 mi ENE 6.9 mph - N/A   Clear
7:15 PM 50.0 °F - 8.6 °F 19% 30.24 in 10.0 mi ENE 6.9 mph - N/A   Clear
7:55 PM 48.2 °F - 8.6 °F 20% 30.24 in 10.0 mi ENE 8.1 mph - N/A   Clear
8:15 PM 48.2 °F - 8.6 °F 20% 30.24 in 10.0 mi ENE 6.9 mph - N/A   Clear
8:55 PM 51.8 °F - 8.6 °F 18% 30.24 in 10.0 mi ESE 4.6 mph - N/A   Clear
9:15 PM 50.0 °F - 10.4 °F 20% 30.25 in 10.0 mi SSE 5.8 mph - N/A   Clear
9:35 PM 46.4 °F 44.3 °F 8.6 °F 22% 30.24 in 10.0 mi ESE 4.6 mph - N/A   Clear
9:55 PM 46.4 °F 44.3 °F 8.6 °F 22% 30.24 in 10.0 mi ESE 4.6 mph - N/A   Clear
10:15 PM 50.0 °F - 10.4 °F 20% 30.24 in 10.0 mi SE 4.6 mph - N/A   Clear
10:35 PM 48.2 °F - 10.4 °F 22% 30.23 in 10.0 mi SSE 4.6 mph - N/A   Clear
10:55 PM 50.0 °F - 12.2 °F 22% 30.23 in 10.0 mi SSE 5.8 mph - N/A   Clear
11:15 PM 48.2 °F - 10.4 °F 22% 30.23 in 10.0 mi SSE 6.9 mph - N/A   Clear
11:35 PM 46.4 °F 42.4 °F 21.2 °F 37% 30.22 in 10.0 mi SSE 8.1 mph - N/A   Clear
11:55 PM 44.6 °F 40.2 °F 17.6 °F 34% 30.22 in 10.0 mi SSE 8.1 mph - N/A   Clear